Airport Information

KRDM - Roberts Fld Airport

KRDM 191856Z 36008KT 310V050 10SM CLR 20/M02 A3015 RMK AO2 SLP193 T02001017


  • General Information

  • Coordinates: N 44°15'14"/ W 121°8'59"
  • Location: N/A
  • Surveyed Elevation: 3077 MSL

Operations

Flow Name Active Runways Conditions

Green background denotes normal operations.


Common Frequencies

Callsign Frequency Position Name

More at the Document Center


Charts